Location: Eaton
(41.3139°N, 82.0207°W)
Time: 00:56:34
(UTC+00:00)

NOSS 3-2 (C) - Pass Details

Date: 17 June 2021
Orbit: 778 x 1434 km, 63.4° (Epoch: 14 July)

Event Time Altitude Azimuth Distance (km) Brightness Sun altitude
Rises 02:30:39 0° 233° (SW) 3,310 6.3 -13.2°
Reaches altitude 10° 02:33:02 10° 239° (WSW) 2,429 5.7 -13.5°
Maximum altitude 02:38:24 48° 313° (NW) 1,169 4.4 -14.2°
Drops below altitude 10° 02:44:36 10° 27° (NNE) 2,788 6.2 -14.9°
Sets 02:47:32 0° 33° (NNE) 3,850 6.9 -15.3°
